Weather History for Hickory, NC

Change the Weather History Date:

Friday, September 6, 2013

  Actual Average Record
Temperature  
Mean Temperature 71 °F -  
Max Temperature 81 °F 81 °F 99 °F (1954)
Min Temperature 63 °F 62 °F 53 °F (1997)
Cooling Degree Days 6    
Growing Degree Days 21 (Base 50)    
Moisture  
Dew Point 59 °F    
Average Humidity 66    
Maximum Humidity 87    
Minimum Humidity 48    
Precipitation  
Precipitation 0.00 in - - ()
Sea Level Pressure  
Sea Level Pressure 30.11 in    
Wind  
Wind Speed 2 mph (NNE)    
Max Wind Speed 8 mph    
Max Gust Speed -    
Visibility 10 miles    
Events      
Averages and records for this station are not official NWS values.
T = Trace of Precipitation, MM = Missing Value Source: NWS Daily Summary

Daily Weather History Graph

Daily Weather History Graph

Search for Another Location

Airport:

Trip Planner

Search our weather history database for the weather conditions in past years. The results will help you decide how hot, cold, wet, or windy it might be!

Date:

Astronomy

Sep. 06, 2013 Rise Set
Actual Time 7:01 AM EDT 7:45 PM EDT
Civil Twilight 6:35 AM EDT 8:11 PM EDT
Nautical Twilight 6:05 AM EDT 8:41 PM EDT
Astronomical Twilight 5:33 AM EDT 9:13 PM EDT
Moon 8:08 AM EDT (9/6) 8:14 PM EDT (9/6)
Length of Visible Light 13h 35m
Length of Day
12h 43m
New Moon, 1% of the Moon is Illuminated
Sep 6
New Moon
Sep 12
First Quarter
Sep 19
Full
Sep 26
Last Quarter
Oct 4
New

Hourly Weather History & Observations

Time (EDT) Temp. Dew Point Humidity Pressure Visibility Wind Dir Wind Speed Gust Speed Precip Events Conditions
12:53 AM 70.0 °F 59.0 °F 68% 30.09 in 10.0 mi Calm Calm - N/A   Clear
1:53 AM 68.0 °F 59.0 °F 73% 30.09 in 10.0 mi Calm Calm - N/A   Clear
2:53 AM 66.0 °F 61.0 °F 84% 30.09 in 10.0 mi Calm Calm - N/A   Clear
3:53 AM 66.0 °F 59.0 °F 78% 30.09 in 10.0 mi NNW 3.5 mph - N/A   Clear
4:53 AM 64.0 °F 60.1 °F 87% 30.09 in 10.0 mi WNW 4.6 mph - N/A   Clear
5:53 AM 64.0 °F 59.0 °F 84% 30.10 in 10.0 mi Calm Calm - N/A   Clear
6:53 AM 63.0 °F 57.9 °F 84% 30.13 in 10.0 mi Calm Calm - N/A   Clear
7:53 AM 64.9 °F 61.0 °F 87% 30.16 in 10.0 mi Calm Calm - N/A   Clear
8:53 AM 68.0 °F 57.9 °F 70% 30.17 in 10.0 mi NE 6.9 mph - N/A   Clear
9:53 AM 71.1 °F 55.0 °F 57% 30.17 in 10.0 mi NE 8.1 mph - N/A   Clear
10:53 AM 73.0 °F 55.9 °F 55% 30.19 in 10.0 mi North 5.8 mph - N/A   Clear
11:53 AM 73.9 °F 57.0 °F 55% 30.18 in 10.0 mi Variable 3.5 mph - N/A   Scattered Clouds
12:53 PM 75.9 °F 57.9 °F 54% 30.16 in 10.0 mi North 4.6 mph - N/A   Clear
1:53 PM 78.1 °F 59.0 °F 52% 30.14 in 10.0 mi North 6.9 mph - N/A   Clear
2:53 PM 78.1 °F 59.0 °F 52% 30.11 in 10.0 mi Calm Calm - N/A   Partly Cloudy
3:53 PM 78.1 °F 57.9 °F 50% 30.09 in 10.0 mi Calm Calm - N/A   Scattered Clouds
4:53 PM 79.0 °F 59.0 °F 50% 30.07 in 10.0 mi East 4.6 mph - N/A   Clear
5:53 PM 79.0 °F 57.9 °F 48% 30.07 in 10.0 mi Calm Calm - N/A   Partly Cloudy
6:53 PM 77.0 °F 59.0 °F 54% 30.06 in 10.0 mi Calm Calm - N/A   Clear
7:53 PM 73.0 °F 61.0 °F 66% 30.06 in 10.0 mi Calm Calm - N/A   Clear
8:53 PM 73.0 °F 61.0 °F 66% 30.09 in 10.0 mi East 3.5 mph - N/A   Overcast
9:53 PM 73.0 °F 60.1 °F 64% 30.09 in 10.0 mi East 3.5 mph - N/A   Overcast
10:53 PM 71.1 °F 61.0 °F 70% 30.10 in 10.0 mi Calm Calm - N/A   Mostly Cloudy
11:53 PM 68.0 °F 62.1 °F 81% 30.10 in 10.0 mi NE 3.5 mph - N/A   Partly Cloudy